Wind_Speed
38 38 39 44 47 43 43 42 44 43 43 43 43 44 42 42 40 37 37 37 36 35 34 33 34 33 33 35 36 35 35 35 33
32 37 37 37 42 44 43 44 46 46 48 46 46 48 50 48 45 44 41 40 40 40 39 37 37 37 37 37 36 36 39 39 38
34 32 34 35 37 38 40 38 43 47 49 47 46 46 47 49 48 47 47 45 44 44 45 44 43 44 43 42 41 41 41 42 41
39 38 39 38 41 32 32 35 42 40 40 41 40 41 42 46 49 50 49 49 50 50 50 50 49 48 48 47 46 44 44 44 43
41 42 40 40 40 41 39 32 31 37 40 40 39 39 39 41 45 48 50 51 52 52 53 54 54 54 52 51 49 48 49 49 50
45 44 43 45 45 42 38 37 38 34 36 41 42 40 39 41 42 43 45 47 47 48 52 55 56 56 53 54 55 54 52 51 50
54 52 51 48 47 42 40 39 40 40 42 43 43 43 44 41 39 41 42 44 45 45 45 47 49 51 52 52 53 53 52 51 50
63 61 59 57 57 54 51 49 47 47 46 47 47 46 46 45 44 42 42 39 36 38 39 41 43 45 46 48 50 50 50 49 49
72 71 68 65 64 61 61 57 56 54 54 53 52 50 49 49 49 46 45 45 43 42 42 41 39 39 40 41 42 43 42 42 41
80 80 76 75 74 71 69 66 63 61 58 56 57 56 55 53 51 49 48 48 47 48 46 44 42 39 38 38 38 38 38 37 38
87 85 82 80 79 78 76 74 72 68 66 64 62 60 59 60 57 55 52 50 49 46 45 43 41 41 39 38 37 37 34 34 33
87 87 88 87 86 83 80 78 77 75 73 71 67 66 65 62 58 58 58 54 53 51 49 45 44 42 41 40 38 37 34 34 33
91 87 86 88 89 88 86 85 81 80 79 79 76 74 69 69 66 64 63 61 58 57 55 51 48 46 46 43 40 39 38 39 38
90 89 88 88 87 88 89 88 89 85 85 85 84 83 80 76 70 68 67 66 62 61 61 58 55 53 52 50 49 47 46 45 46
84 86 87 88 89 89 89 89 89 91 90 89 89 89 87 86 80 74 70 69 68 64 62 63 62 61 58 55 55 56 55 53 53
73 76 81 85 85 89 92 92 93 90 93 94 94 93 92 90 89 84 79 76 73 71 70 71 71 69 65 63 62 60 61 62 61
62 67 71 76 81 85 88 93 97 94 94 94 95 96 94 95 94 93 90 86 83 80 78 76 74 76 72 70 69 68 67 66 66
54 52 62 68 71 77 81 85 88 90 94 92 92 96 96 98 98 97 97 95 91 88 87 83 81 80 77 76 76 74 74 73 72
40 42 49 55 61 67 73 76 81 85 90 94 105 96 96 101 102 101 99 100 98 95 93 90 88 85 83 83 83 82 80 79 78
33 33 35 41 49 55 62 68 73 82 83 92 96 102 90 104 107 101 100 100 100 101 99 94 92 90 89 88 89 89 87 85 83
Wind_Direction
276 274 269 262 260 261 263 263 262 262 267 264 267 267 269 268 263 261 265 266 266 267 268 271 273 273 274 275 278 284 295 296 298
279 275 270 269 265 259 263 264 265 264 266 265 264 265 265 263 262 262 264 267 266 268 269 271 274 277 280 282 284 287 291 295 292
279 279 280 276 271 266 262 261 264 264 266 267 264 262 261 258 256 259 262 265 268 267 268 271 274 275 276 277 279 281 285 286 288
269 275 278 280 280 274 272 268 267 265 263 264 263 259 259 257 255 255 259 262 266 267 268 269 271 273 275 277 278 279 282 285 286
265 265 267 270 272 273 269 266 266 268 264 261 261 262 260 259 258 258 258 260 262 263 264 267 269 271 272 272 274 277 281 283 286
259 261 262 264 265 265 267 262 260 263 267 263 261 261 260 260 259 259 261 261 261 262 264 265 266 267 268 269 271 274 278 282 284
265 261 260 260 259 259 259 258 258 257 260 265 266 262 262 261 259 261 262 262 263 265 266 265 265 266 266 267 270 273 277 277 278
273 271 269 264 259 261 258 257 254 257 258 262 268 268 262 261 260 260 259 258 257 262 265 267 269 270 270 271 271 274 274 275 278
274 273 272 271 269 264 258 260 258 256 256 258 260 263 267 265 264 262 261 262 263 263 264 266 269 273 272 272 272 272 272 274 275
273 273 272 271 270 268 267 264 260 259 258 256 257 257 259 262 263 262 261 262 264 266 266 268 267 268 269 270 269 269 271 273 274
270 270 269 268 267 265 265 265 265 264 260 260 259 258 256 256 259 261 260 263 263 263 267 267 267 266 268 269 269 270 269 268 270
267 265 267 266 265 263 262 261 262 263 263 263 259 260 259 256 255 257 259 260 261 262 261 263 264 265 262 264 266 266 266 266 269
268 265 263 261 261 261 259 259 257 259 261 262 263 263 258 258 255 255 257 259 261 261 264 260 261 265 263 262 260 261 264 265 266
268 264 262 260 257 256 256 256 256 254 256 258 259 260 261 260 259 256 257 258 259 261 261 261 264 263 262 262 260 258 261 263 265
267 263 261 258 256 254 253 252 252 253 252 253 255 257 259 261 261 257 257 258 259 260 258 259 263 262 261 261 261 261 260 260 262
269 264 260 258 254 251 251 251 250 251 250 250 251 253 256 257 259 260 258 259 259 258 258 258 261 262 260 259 260 259 260 261 263
267 261 257 254 253 250 247 246 247 248 249 250 250 252 252 255 257 258 258 259 259 260 259 260 261 263 262 262 260 259 259 260 262
272 261 256 253 251 250 248 246 245 245 248 249 254 249 252 253 253 257 259 260 259 260 260 259 259 261 263 264 264 262 262 262 262
277 263 256 253 252 249 247 246 244 243 243 244 245 248 249 250 252 251 253 257 260 261 260 259 259 260 261 263 263 264 264 263 264
286 269 263 255 251 249 247 246 244 242 240 242 245 247 250 249 248 250 252 254 256 259 260 259 260 259 259 262 264 265 266 266 265
Height
10852 10853 10853 10855 10857 10860 10859 10859 10860 10861 10863 10863 10863 10863 10863 10864 10865 10865 10865 10865 10865 10865 10865 10865 10865 10864 10864 10863 10862 10860 10860 10858 10857
10847 10845 10846 10847 10848 10851 10851 10851 10851 10852 10852 10854 10854 10854 10853 10855 10856 10857 10857 10857 10857 10858 10857 10858 10858 10858 10857 10856 10855 10854 10853 10851 10850
10839 10839 10838 10838 10840 10842 10843 10842 10842 10842 10842 10843 10844 10843 10843 10844 10846 10848 10849 10850 10850 10850 10849 10849 10849 10849 10849 10849 10848 10847 10846 10845 10843
10832 10831 10831 10831 10831 10834 10835 10836 10833 10832 10832 10833 10834 10834 10834 10834 10835 10838 10840 10840 10841 10841 10841 10841 10841 10841 10841 10840 10840 10839 10839 10838 10836
10824 10824 10823 10822 10823 10824 10827 10827 10826 10824 10824 10824 10825 10826 10826 10826 10826 10827 10829 10830 10831 10831 10831 10831 10831 10832 10833 10832 10832 10831 10830 10830 10829
10813 10814 10814 10814 10814 10815 10816 10817 10818 10816 10815 10815 10816 10817 10817 10818 10818 10819 10820 10820 10820 10821 10821 10821 10821 10821 10823 10823 10822 10822 10822 10821 10821
10799 10802 10803 10804 10803 10803 10804 10806 10807 10807 10807 10806 10806 10808 10809 10809 10810 10810 10810 10810 10811 10811 10811 10810 10810 10811 10811 10813 10813 10813 10813 10812 10811
10784 10786 10787 10789 10791 10792 10793 10793 10795 10796 10797 10797 10796 10796 10798 10800 10801 10802 10801 10801 10801 10802 10801 10801 10801 10801 10802 10802 10803 10803 10803 10803 10803
10767 10768 10770 10773 10774 10777 10779 10780 10781 10783 10785 10786 10786 10786 10786 10788 10790 10791 10791 10791 10791 10792 10792 10792 10792 10792 10793 10793 10793 10793 10794 10794 10794
10747 10749 10752 10754 10757 10759 10761 10763 10765 10767 10770 10773 10774 10775 10776 10777 10778 10779 10780 10780 10780 10781 10783 10783 10783 10784 10783 10783 10783 10784 10785 10785 10785
10725 10727 10731 10734 10736 10739 10742 10745 10747 10751 10754 10756 10759 10761 10764 10764 10765 10766 10768 10769 10770 10770 10772 10773 10774 10774 10774 10775 10774 10774 10776 10776 10777
10700 10704 10705 10709 10712 10716 10721 10725 10729 10732 10735 10738 10742 10745 10747 10750 10753 10753 10754 10757 10759 10760 10761 10762 10763 10764 10764 10765 10766 10766 10767 10767 10768
10671 10675 10679 10682 10686 10691 10698 10702 10709 10712 10716 10719 10722 10725 10730 10733 10737 10741 10742 10744 10746 10748 10750 10751 10752 10753 10754 10755 10756 10757 10758 10759 10760
10641 10645 10649 10652 10659 10665 10670 10679 10684 10691 10695 10697 10702 10706 10710 10714 10721 10725 10727 10730 10733 10735 10737 10739 10741 10742 10743 10745 10745 10746 10747 10748 10748
10611 10615 10616 10620 10630 10637 10643 10651 10659 10666 10673 10677 10681 10685 10690 10693 10700 10707 10712 10715 10718 10722 10724 10724 10726 10728 10731 10734 10735 10734 10735 10735 10735
10582 10586 10588 10590 10598 10605 10614 10624 10631 10641 10649 10654 10658 10666 10670 10677 10680 10686 10692 10697 10702 10704 10707 10710 10710 10712 10715 10718 10720 10721 10720 10720 10722
10554 10555 10559 10561 10567 10574 10584 10594 10605 10616 10625 10633 10639 10645 10651 10655 10659 10663 10670 10675 10681 10684 10688 10691 10693 10694 10698 10700 10703 10704 10705 10707 10709
10530 10533 10534 10537 10545 10550 10558 10569 10582 10596 10605 10615 10622 10625 10632 10634 10640 10645 10648 10652 10658 10663 10667 10671 10673 10676 10680 10683 10684 10686 10688 10689 10690
10511 10513 10514 10520 10526 10531 10537 10548 10560 10572 10583 10590 10590 10601 10607 10608 10615 10623 10630 10632 10637 10640 10644 10648 10653 10657 10662 10663 10664 10666 10669 10670 10672
10498 10498 10501 10506 10509 10515 10521 10530 10540 10546 10560 10567 10574 10576 10587 10582 10587 10602 10609 10612 10616 10615 10618 10626 10631 10635 10641 10644 10646 10645 10648 10650 10651